[[{"header":{"parameterUnit":"m.s-1","parameterCategory":1,"la1":30.2991,"la2":30.254,"lo1":-89.0895,"lo2":-89.0444,"dy":0.0017,"dx":0.0017,"nx":28,"ny":28,"refTime":"2026-01-02T09:00:00:Z","depth":0,"parameterNumber":2,"parameterNumberName":"U-component_of_WINDS"},"data":[0,0,0,0,0,0,0,0,0,0,0,0,0,0,0,0,0,0,0,0,0,0,0,0,0,0,0,0,0,0,0,0,0,0,0,0,0,0,0,0,0,0,0,0,0,0,0,0,0,0,0,0,0,0,0,0,0,0,0.1717,0.1718,0,0.1774,0.1774,0.1775,0.1797,0.1797,0.1797,0.1797,0.1855,0.1857,0.1858,0,0,0,0,0,0,0,0,0,0,0,0,0,0.1631,0.1632,0.1717,0.1718,0.1719,0.1773,0.1774,0.1775,0.1797,0.1797,0.1797,0.1797,0.1855,0.1857,0.1859,0,0,0,0,0,0,0,0,0,0,0,0,0,0.1676,0.1633,0.1717,0.1736,0.1739,0.1773,0.1774,0.1775,0.1798,0.1797,0.1797,0.1797,0.1854,0.1856,0.1859,0.1879,0,0,0.1867,0.1868,0,0,0,0,0,0,0,0,0.1673,0.1679,0.1733,0.1735,0.1738,0.1778,0.1765,0.181,0.1798,0.1775,0.1797,0.1797,0.183,0.1834,0.1845,0.1881,0.1884,0.1867,0.1868,0.1869,0.187,0,0,0,0,0,0,0,0.167,0.1677,0.174,0.1734,0.1737,0.1743,0.1749,0.1774,0.1803,0.1777,0.1779,0.1785,0.1831,0.1843,0.1847,0.1885,0.1867,0.1869,0.187,0.1871,0.1941,0.1942,0,0,0,0,0,0,0.1664,0.1674,0.1738,0.1741,0.1704,0.1745,0.1751,0.1765,0.1803,0.1808,0.1785,0.1786,0.1839,0.1844,0.1849,0.1875,0.1869,0.1872,0.1873,0.1941,0.1942,0.1942,0,0,0,0,0,0,0.1662,0.1669,0.1735,0.1708,0.1717,0.1746,0.1762,0.1767,0.1778,0.1809,0.1814,0.1792,0.1839,0.1845,0.1871,0.1878,0.1873,0.1875,0.1941,0.1941,0.1942,0.1928,0,0,0,0,0,0,0.1659,0.1668,0.1675,0.1708,0.1718,0.1756,0.1762,0.1768,0.1783,0.1784,0.1817,0.1822,0.1839,0.1868,0.1874,0.1881,0.1877,0.194,0.1941,0.1942,0.1928,0.1928,0.1928,0,0,0,0,0,0.1656,0.1669,0.1676,0.1683,0.1728,0.1757,0.1763,0.1782,0.1783,0.1791,0.1811,0.1821,0.1876,0.187,0.1877,0.1885,0.194,0.1941,0.1941,0.1928,0.1928,0.1928,0,0,0,0,0,0,0.1636,0.1673,0.1681,0.1705,0.1728,0.176,0.1771,0.1781,0.1804,0.1804,0.1828,0.1835,0.1859,0.1875,0.1867,0.1907,0.1909,0.1911,0.1896,0.1896,0.1896,0.1891,0.1879,0,0,0,0,0,0.1634,0.1654,0.1686,0.1704,0.1715,0.1741,0.1754,0.1767,0.1792,0.1801,0.1823,0.1846,0.1869,0.1884,0.1906,0.193,0.1938,0.194,0.194,0.1939,0.1941,0.1956,0.1958,0.1944,0.1944,0.1944,0,0,0.1631,0.1654,0.1665,0.1701,0.172,0.174,0.1749,0.177,0.1785,0.1804,0.183,0.1847,0.1875,0.1901,0.1913,0.1914,0.1947,0.194,0.194,0.1942,0.1957,0.1958,0.196,0.1945,0.1945,0.1945,0,0,0.1636,0.1655,0.1673,0.1692,0.172,0.1738,0.1742,0.1774,0.1786,0.1812,0.1828,0.1847,0.1885,0.1905,0.192,0.1934,0.1944,0.1941,0.1941,0.1955,0.1956,0.1957,0.1963,0.1965,0.1943,0.1943,0.1943,0,0.1628,0.1659,0.168,0.1701,0.1717,0.1735,0.1754,0.1772,0.1806,0.1817,0.1818,0.1868,0.1888,0.1919,0.1923,0.1934,0.1941,0.1937,0.1954,0.1956,0.1957,0.1963,0.1965,0.1942,0.1942,0.1942,0.1942,0,0.1649,0.167,0.1681,0.1715,0.1732,0.1751,0.1776,0.1791,0.1803,0.1821,0.1849,0.1874,0.1902,0.1911,0.1923,0.1944,0.1944,0.195,0.1952,0.1957,0.1963,0.1965,0.1941,0.1941,0.1942,0.1942,0,0,0.1641,0.1687,0.1691,0.1707,0.174,0.1758,0.1779,0.1807,0.182,0.1844,0.1862,0.1896,0.1902,0.1919,0.1933,0.1946,0.1957,0.195,0.1952,0.1951,0.1983,0.1978,0.198,0.1964,0.1965,0.1965,0.1981,0,0.165,0.1688,0.1709,0.1738,0.1759,0.1778,0.1797,0.182,0.1838,0.1858,0.1878,0.1901,0.1907,0.1918,0.1931,0.1953,0.1964,0.1952,0.1982,0.1983,0.1974,0.1983,0.1978,0.1991,0.1983,0.1983,0.1984,0,0.1666,0.169,0.1721,0.1754,0.1764,0.178,0.1808,0.1828,0.1855,0.1867,0.1887,0.1902,0.1926,0.1927,0.1961,0.1952,0.1967,0.1979,0.198,0.1983,0.1983,0.1987,0.1996,0.1998,0.1987,0.1987,0.1987,0,0.1658,0.1698,0.1722,0.1735,0.1774,0.1785,0.1802,0.1829,0.1845,0.187,0.1881,0.1909,0.1924,0.1945,0.1968,0.1966,0.2,0.2002,0.2011,0.201,0.2017,0.2016,0.2028,0.2026,0.2026,0.2026,0.2026,0,0.1666,0.1684,0.1719,0.1734,0.1756,0.178,0.1802,0.182,0.1844,0.1864,0.1883,0.1901,0.1929,0.1951,0.1969,0.1995,0.2002,0.2013,0.2017,0.2011,0.2009,0.202,0.202,0.2026,0.2026,0.2026,0.2026,0,0.166,0.1683,0.1712,0.1746,0.1756,0.1771,0.1801,0.1817,0.1836,0.1861,0.1868,0.1898,0.1925,0.195,0.1986,0.1998,0.2024,0.203,0.2015,0.2017,0.2025,0.2024,0.2044,0.2048,0.2043,0.2043,0.2043,0,0.1663,0.1678,0.1715,0.1729,0.1746,0.1769,0.1785,0.181,0.1827,0.1861,0.1873,0.1901,0.1925,0.1968,0.1993,0.2021,0.2028,0.2033,0.2032,0.2026,0.2028,0.2027,0.2029,0.2033,0.2033,0.2033,0.2033,0,0.1667,0.1678,0.1701,0.1729,0.1749,0.1772,0.1796,0.1807,0.1837,0.1855,0.1883,0.1902,0.1939,0.1967,0.1999,0.2017,0.203,0.2033,0.2037,0.203,0.2021,0.2026,0.2014,0.2032,0.2032,0.2032,0.2032,0.2032,0.1666,0.168,0.1709,0.1735,0.1755,0.1778,0.1795,0.1816,0.184,0.1872,0.1886,0.1914,0.1943,0.1986,0.2005,0.2028,0.2031,0.2036,0.2037,0.2038,0.2037,0.2017,0.2034,0.2034,0.2034,0.2034,0.2034,0,0.1671,0.169,0.1714,0.1747,0.1768,0.1778,0.1806,0.1823,0.1847,0.1873,0.1897,0.193,0.1958,0.1986,0.2016,0.2029,0.2036,0.2036,0.2035,0.204,0.2033,0.2027,0.203,0.203,0.203,0.203,0.203,0.203,0.1676,0.1701,0.1716,0.1753,0.1773,0.1801,0.1816,0.1837,0.1857,0.1893,0.1917,0.1935,0.1962,0.1995,0.2021,0.2029,0.2039,0.2038,0.2047,0.204,0.204,0.204,0.2034,0.204,0.204,0.2052,0.2052,0.2053]},{"header":{"parameterUnit":"m.s-1","parameterCategory":1,"la1":30.2991,"la2":30.254,"lo1":-89.0895,"lo2":-89.0444,"dy":0.0017,"dx":0.0017,"nx":28,"ny":28,"refTime":"2026-01-02T09:00:00:Z","depth":0,"parameterNumber":3,"parameterNumberName":"V-component_of_WINDS"},"data":[0,0,0,0,0,0,0,0,0,0,0,0,0,0,0,0,0,0,0,0,0,0,0,0,0,0,0,0,0,0,0,0,0,0,0,0,0,0,0,0,0,0,0,0,0,0,0,0,0,0,0,0,0,0,0,0,0,0,-4.5747,-4.5747,0,-4.5776,-4.5776,-4.5776,-4.5787,-4.5787,-4.5787,-4.5787,-4.5814,-4.5814,-4.5815,0,0,0,0,0,0,0,0,0,0,0,0,0,-4.57,-4.5701,-4.5747,-4.5747,-4.5748,-4.5776,-4.5776,-4.5777,-4.5787,-4.5787,-4.5787,-4.5787,-4.5813,-4.5814,-4.5815,0,0,0,0,0,0,0,0,0,0,0,0,0,-4.5724,-4.5701,-4.5747,-4.5756,-4.5757,-4.5776,-4.5776,-4.5777,-4.5787,-4.5787,-4.5787,-4.5787,-4.5813,-4.5814,-4.5815,-4.5825,0,0,-4.5819,-4.582,0,0,0,0,0,0,0,0,-4.5722,-4.5725,-4.5755,-4.5756,-4.5757,-4.5778,-4.5769,-4.5793,-4.5787,-4.5776,-4.5787,-4.5787,-4.5802,-4.5804,-4.5809,-4.5827,-4.5828,-4.5819,-4.582,-4.582,-4.5821,0,0,0,0,0,0,0,-4.5721,-4.5724,-4.5758,-4.5755,-4.5756,-4.5759,-4.5762,-4.5774,-4.5789,-4.5777,-4.5778,-4.5781,-4.5802,-4.5808,-4.581,-4.5828,-4.5819,-4.582,-4.5821,-4.5821,-4.5857,-4.5858,0,0,0,0,0,0,-4.5718,-4.5723,-4.5757,-4.5759,-4.5739,-4.576,-4.5763,-4.5771,-4.5789,-4.5792,-4.5781,-4.5781,-4.5806,-4.5809,-4.5811,-4.5825,-4.582,-4.5822,-4.5822,-4.5857,-4.5857,-4.5858,0,0,0,0,0,0,-4.5716,-4.5721,-4.5756,-4.5741,-4.5746,-4.5761,-4.5769,-4.5772,-4.5778,-4.5792,-4.5795,-4.5785,-4.5806,-4.5809,-4.5822,-4.5826,-4.5822,-4.5823,-4.5857,-4.5857,-4.5858,-4.5853,0,0,0,0,0,0,-4.5715,-4.572,-4.5724,-4.5741,-4.5747,-4.5767,-4.577,-4.5772,-4.578,-4.5781,-4.5796,-4.5798,-4.5806,-4.5821,-4.5824,-4.5828,-4.5824,-4.5857,-4.5857,-4.5857,-4.5853,-4.5853,-4.5853,0,0,0,0,0,-4.5713,-4.572,-4.5724,-4.5728,-4.5752,-4.5767,-4.577,-4.578,-4.578,-4.5785,-4.5794,-4.5798,-4.5826,-4.5822,-4.5825,-4.583,-4.5856,-4.5857,-4.5857,-4.5852,-4.5853,-4.5853,0,0,0,0,0,0,-4.5702,-4.5723,-4.5727,-4.574,-4.5752,-4.5769,-4.5775,-4.578,-4.5791,-4.5791,-4.5802,-4.5806,-4.5818,-4.5825,-4.5821,-4.5842,-4.5841,-4.5842,-4.5836,-4.5837,-4.5837,-4.5835,-4.5825,0,0,0,0,0,-4.5701,-4.5712,-4.573,-4.5739,-4.5746,-4.5759,-4.5766,-4.5773,-4.5785,-4.579,-4.5801,-4.5812,-4.5824,-4.583,-4.5842,-4.5854,-4.5858,-4.5859,-4.5859,-4.5859,-4.586,-4.5869,-4.587,-4.5859,-4.5859,-4.5859,0,0,-4.5698,-4.5712,-4.5718,-4.5738,-4.5748,-4.5759,-4.5763,-4.5774,-4.5783,-4.5791,-4.5805,-4.5813,-4.5827,-4.584,-4.5846,-4.5847,-4.5864,-4.586,-4.586,-4.5861,-4.5869,-4.587,-4.5871,-4.586,-4.586,-4.586,0,0,-4.5701,-4.5711,-4.5722,-4.5732,-4.5748,-4.5758,-4.576,-4.5777,-4.5784,-4.5798,-4.5805,-4.5815,-4.5834,-4.5844,-4.5852,-4.5861,-4.5865,-4.5864,-4.5865,-4.5873,-4.5874,-4.5875,-4.5878,-4.588,-4.5865,-4.5865,-4.5865,0,-4.5695,-4.5714,-4.5726,-4.5738,-4.5747,-4.5757,-4.5767,-4.5777,-4.5795,-4.5801,-4.5801,-4.5827,-4.5837,-4.5853,-4.5856,-4.5861,-4.5865,-4.5862,-4.5873,-4.5874,-4.5875,-4.5879,-4.588,-4.5865,-4.5865,-4.5865,-4.5865,0,-4.5707,-4.572,-4.5726,-4.5746,-4.5755,-4.5766,-4.578,-4.5788,-4.5795,-4.5805,-4.582,-4.5832,-4.5847,-4.5851,-4.5857,-4.5869,-4.5869,-4.5871,-4.5871,-4.5875,-4.5879,-4.5881,-4.5864,-4.5864,-4.5864,-4.5864,0,0,-4.57,-4.5729,-4.5731,-4.5741,-4.576,-4.577,-4.5782,-4.5798,-4.5806,-4.5818,-4.5829,-4.5846,-4.5849,-4.5858,-4.5865,-4.5872,-4.588,-4.5874,-4.5874,-4.5875,-4.5895,-4.5893,-4.5895,-4.5883,-4.5883,-4.5884,-4.5894,0,-4.5705,-4.5728,-4.5741,-4.5758,-4.5771,-4.5782,-4.5793,-4.5806,-4.5816,-4.5828,-4.5838,-4.5851,-4.5853,-4.5859,-4.5866,-4.5877,-4.5884,-4.5877,-4.5893,-4.5893,-4.5889,-4.5896,-4.5894,-4.5903,-4.5895,-4.5896,-4.5896,0,-4.5713,-4.5728,-4.5748,-4.5768,-4.5774,-4.5783,-4.58,-4.5811,-4.5827,-4.5834,-4.5845,-4.5852,-4.5866,-4.5866,-4.5884,-4.5879,-4.5887,-4.5893,-4.5894,-4.5895,-4.5894,-4.5898,-4.5906,-4.5908,-4.5898,-4.5898,-4.5898,0,-4.5707,-4.5732,-4.5748,-4.5756,-4.578,-4.5786,-4.5796,-4.5812,-4.5822,-4.5836,-4.5843,-4.5858,-4.5866,-4.5878,-4.589,-4.5888,-4.5908,-4.5908,-4.5914,-4.5913,-4.5916,-4.5916,-4.5926,-4.5921,-4.5921,-4.5921,-4.5921,0,-4.5711,-4.5723,-4.5746,-4.5755,-4.5769,-4.5783,-4.5796,-4.5807,-4.5822,-4.5833,-4.5844,-4.5854,-4.587,-4.5882,-4.5891,-4.5906,-4.591,-4.5915,-4.5918,-4.5914,-4.5914,-4.5919,-4.5919,-4.5922,-4.5922,-4.5922,-4.5922,0,-4.5706,-4.5722,-4.574,-4.5762,-4.5768,-4.5777,-4.5796,-4.5806,-4.5817,-4.5832,-4.5836,-4.5854,-4.5869,-4.5883,-4.5903,-4.5909,-4.5925,-4.5927,-4.592,-4.5921,-4.5926,-4.5925,-4.5939,-4.5942,-4.5936,-4.5936,-4.5936,0,-4.5708,-4.5717,-4.5742,-4.5751,-4.5762,-4.5776,-4.5787,-4.5802,-4.5813,-4.5833,-4.584,-4.5857,-4.5871,-4.5895,-4.5909,-4.5925,-4.5928,-4.5932,-4.5931,-4.5928,-4.5929,-4.5928,-4.593,-4.5932,-4.5932,-4.5932,-4.5932,0,-4.5709,-4.5717,-4.5732,-4.5751,-4.5764,-4.5778,-4.5794,-4.5801,-4.5819,-4.583,-4.5847,-4.5858,-4.588,-4.5897,-4.5915,-4.5925,-4.5932,-4.5933,-4.5935,-4.5932,-4.5927,-4.593,-4.592,-4.5932,-4.5932,-4.5932,-4.5932,-4.5932,-4.5707,-4.5717,-4.5736,-4.5754,-4.5767,-4.5782,-4.5793,-4.5807,-4.5822,-4.5842,-4.585,-4.5867,-4.5884,-4.5909,-4.592,-4.5934,-4.5934,-4.5937,-4.5938,-4.5939,-4.5939,-4.5925,-4.5937,-4.5937,-4.5937,-4.5937,-4.5937,0,-4.5709,-4.5723,-4.5739,-4.5761,-4.5775,-4.5782,-4.58,-4.5811,-4.5827,-4.5843,-4.5858,-4.5878,-4.5895,-4.5911,-4.5929,-4.5937,-4.594,-4.5941,-4.594,-4.5943,-4.5936,-4.5933,-4.5938,-4.5938,-4.5938,-4.5938,-4.5938,-4.5938,-4.5712,-4.5729,-4.574,-4.5765,-4.5778,-4.5797,-4.5807,-4.582,-4.5834,-4.5856,-4.5871,-4.5882,-4.5899,-4.5918,-4.5934,-4.5939,-4.5945,-4.5944,-4.5949,-4.5943,-4.5943,-4.5943,-4.5939,-4.5946,-4.5946,-4.5955,-4.5955,-4.5955]}]]